KUIPER-00087

Last updated on Sat Aug 16 2025 00:02:06 GMT+0000 (Coordinated Universal Time)

1 64833U 25151T 25227.07250964 .00020604 00000+0 58814-3 0 9999 2 64833 51.8779 143.8831 0005042 239.4793 120.5695 15.35988084 4574

Satellite not in orbit

KUIPER-00087